MST,Max TemperatureF,Mean TemperatureF,Min TemperatureF,Max Dew PointF,MeanDew PointF,Min DewpointF,Max Humidity, Mean Humidity, Min Humidity, Max Sea Level PressureIn, Mean Sea Level PressureIn, Min Sea Level PressureIn, Max VisibilityMiles, Mean VisibilityMiles, Min VisibilityMiles, Max Wind SpeedMPH, Mean Wind SpeedMPH, Max Gust SpeedMPH,PrecipitationIn, CloudCover, Events, WindDirDegrees
2012-12-1,61,47,33,23,19,13,57,34,19,30.09,30.03,29.92,10,10,10,17,9,24,0.00,0,,256
2012-12-2,60,46,31,16,10,7,40,25,14,30.07,29.93,29.74,10,10,10,30,8,45,0.00,0,,270
2012-12-3,55,42,25,25,16,7,67,37,21,30.24,30.04,29.74,10,10,10,29,13,45,0.00,2,,340
2012-12-4,51,35,19,21,13,8,81,46,19,30.36,30.28,30.23,10,10,10,14,6,21,0.00,0,,255
2012-12-5,64,50,35,22,18,14,46,29,17,30.24,30.06,29.94,10,10,10,14,6,20,0.00,0,,260
2012-12-6,47,36,24,31,26,20,87,61,38,30.05,29.97,29.91,10,10,10,14,9,24,0.00,4,Rain,352
2012-12-7,50,34,17,20,16,13,85,56,24,29.95,29.88,29.82,10,10,10,18,6,25,0.00,0,,335
2012-12-8,51,34,18,20,15,5,93,63,15,29.92,29.76,29.63,10,10,10,32,10,45,0.00,1,Snow,76
2012-12-9,18,8,-1,14,4,-6,91,75,56,30.10,29.99,29.84,10,6,0,23,15,31,0.00,6,Snow,347
2012-12-10,36,18,0,14,5,-6,89,56,32,29.97,29.86,29.80,10,10,1,16,7,21,0.00,3,Snow,314
2012-12-11,32,20,9,15,11,5,92,66,37,29.97,29.88,29.81,10,10,10,17,7,23,0.00,1,,259
2012-12-12,34,28,24,10,8,6,51,43,31,29.82,29.81,29.80,10,10,10,14,9,18,0.00,0,,290
2012-12-13,51,36,22,17,10,3,69,38,14,30.05,29.99,29.92,10,10,10,15,7,18,0.00,0,,221
2012-12-14,39,30,20,32,21,11,97,64,35,29.92,29.67,29.49,10,10,5,16,5,22,0.00,3,Snow,301
2012-12-15,41,32,23,24,18,14,85,56,40,29.78,29.71,29.64,10,10,7,18,8,21,0.00,2,Snow,289
2012-12-16,41,30,19,19,10,3,69,46,20,29.82,29.71,29.64,10,10,10,20,8,26,0.00,2,,312
2012-12-17,47,32,18,14,9,4,55,37,24,29.79,29.71,29.65,10,10,10,28,9,34,0.00,0,,275
2012-12-18,41,31,21,18,14,9,86,52,32,29.78,29.70,29.59,10,10,10,20,7,30,0.00,0,,120
2012-12-19,21,12,3,18,9,-8,93,80,54,30.06,29.74,29.50,10,7,0,34,20,50,0.00,4,Snow,343
2012-12-20,42,24,5,9,-2,-10,56,29,15,30.24,30.17,30.04,10,10,10,21,10,26,0.00,0,,285
2012-12-21,46,33,20,13,1,-6,48,27,13,30.24,30.17,30.08,10,10,10,15,8,,0.00,0,,300
2012-12-22,54,37,20,10,-1,-9,45,21,8,30.10,30.04,29.98,10,10,10,16,10,23,0.00,0,,280
2012-12-23,48,34,19,17,5,-11,73,35,12,29.99,29.94,29.90,10,10,10,28,9,41,0.00,0,,292
2012-12-24,43,29,15,20,12,6,96,58,25,29.96,29.77,29.66,10,8,1,15,5,22,0.00,4,Snow,121
2012-12-25,23,15,7,14,8,3,95,81,56,30.06,29.98,29.80,10,6,0,20,9,26,0.00,6,Snow,270
2012-12-26,31,16,1,21,11,-2,93,80,58,29.92,29.69,29.52,10,7,0,14,5,21,0.00,3,Fog-Snow,238
2012-12-27,33,24,14,20,13,7,93,74,45,29.81,29.65,29.52,10,8,1,17,8,22,0.00,4,Snow,16
2012-12-28,28,14,0,14,5,-4,96,69,33,30.07,29.92,29.80,10,8,1,15,6,21,0.00,3,Snow,316
2012-12-29,33,17,1,3,-3,-10,63,43,20,30.15,30.04,29.86,10,10,10,14,6,21,0.00,0,,238
2012-12-30,40,26,12,4,-1,-7,62,37,16,29.95,29.91,29.84,10,10,10,15,6,21,0.00,0,,20
2012-12-31,23,15,7,14,9,4,95,72,51,29.97,29.89,29.83,10,9,0,12,5,,0.00,6,Snow,7